Location: Newark
(45.6000°N, 12.8833°E)
Time: 18:38:26
(UTC+00:00)

Vanguard 2 Rocket - All Passes

Search period start: 22 November 2019 00:00
Search period end: 02 December 2019 00:00
Orbit: 554 x 3326 km, 32.9° (Epoch: 21 November)

Date Brightness Start Highest point End Pass type
(mag) Time Alt. Az. Time Alt. Az. Time Alt. Az.
22 Nov - 01:58:35 10° SW 02:02:06 20° S 02:06:46 10° SE visible
22 Nov - 04:11:09 10° SW 04:14:51 15° SSW 04:19:37 10° SSE visible
23 Nov - 01:00:01 10° SW 01:02:57 18° S 01:06:33 10° SE night (unlit)
23 Nov - 03:11:59 10° SW 03:15:22 16° S 03:19:42 10° SSE visible
24 Nov - 00:01:30 10° SSW 00:03:54 15° S 00:06:33 10° SE night (unlit)
24 Nov - 02:13:03 10° SW 02:16:02 16° S 02:19:47 10° SSE visible
24 Nov - 23:03:05 10° SSW 23:04:52 13° S 23:06:39 10° SE night (unlit)
25 Nov - 01:14:13 10° SW 01:16:51 16° S 01:19:58 10° SE night (unlit)
25 Nov - 03:28:35 10° SSW 03:29:21 10° SSW 03:30:08 10° S visible
25 Nov - 22:05:03 10° S 22:05:46 10° SSE 22:06:29 10° SSE night (unlit)
26 Nov - 00:15:24 10° SW 00:17:46 15° S 00:20:20 10° SE night (unlit)
26 Nov - 02:28:29 10° SSW 02:30:00 11° SSW 02:31:39 10° S visible
26 Nov - 23:16:29 10° SSW 23:18:42 14° S 23:20:56 10° SE night (unlit)
27 Nov - 01:29:02 10° SSW 01:30:46 12° S 01:32:40 10° SSE night (unlit)
27 Nov - 22:17:25 10° SSW 22:19:38 14° S 22:21:43 10° SE night (unlit)
28 Nov - 00:29:44 10° SW 00:31:38 13° S 00:33:39 10° SSE night (unlit)
28 Nov - 21:18:11 10° SSW 21:20:31 13° S 21:22:35 10° SE night (unlit)
28 Nov - 23:30:23 10° SW 23:32:34 14° S 23:34:44 10° SSE night (unlit)
29 Nov - 20:18:51 10° SSW 20:21:18 13° S 20:23:24 10° SE visible
29 Nov - 22:30:52 10° SW 22:33:31 15° S 22:35:55 10° SE night (unlit)
30 Nov - 19:19:36 10° S 19:21:57 12° SSE 19:23:59 10° SE visible
30 Nov - 21:31:08 10° SW 21:34:25 17° S 21:37:11 10° SE night (unlit)
30 Nov - 23:44:49 10° SW 23:46:24 12° SSW 23:47:57 10° S night (unlit)
01 Dec - 18:20:58 10° S 18:22:26 11° SSE 18:23:47 10° SSE visible
01 Dec - 20:31:11 10° SW 20:35:15 18° S 20:38:26 10° SE visible
01 Dec - 22:44:45 10° SW 22:47:21 15° S 22:49:43 10° SSE night (unlit)
